Regional Weather Roundup
Issued by NWS

Home | Current Version | Previous Version | Text Only | Print | Product List | Glossary On
Versions: 1 2 3 4 5 6 7 8 9 10 11 12 13 14 15 16 17 18 19 20 21 22 23 24 25 26 27 28 29 30 31 32 33 34 35 36 37 38 39 40 41 42 43 44 45 46 47 48 49 50
000
ASUS43 KMKX 240021
RWRWI

WISCONSIN REGIONAL WEATHER ROUNDUP
NATIONAL WEATHER SERVICE MILWAUKEE/SULLIVAN WI
700 PM CDT MON OCT 23 2017

NOTE: "FAIR" INDICATES FEW OR NO CLOUDS BELOW 12,000 FEET WITH NO
SIGNIFICANT WEATHER AND/OR OBSTRUCTIONS TO VISIBILITY.

WIZ001-002-006>008-014>016-023>028-240100-
NORTHWEST WISCONSIN

CITY           SKY/WX    TMP DP  RH WIND       PRES   REMARKS
SUPERIOR ARPT  CLOUDY    48  43  82 N9        29.79R
6HR MIN TEMP:  48; 6HR MAX TEMP:  64;

ASHLAND        CLOUDY    53  42  66 W16G22    29.71R
6HR MIN TEMP:  53; 6HR MAX TEMP:  64;

HAYWARD        CLOUDY    51  40  65 VRB5      29.74R
6HR MIN TEMP:  51; 6HR MAX TEMP:  61;

SIREN          CLOUDY    47  38  71 N18G26    29.81R
6HR MIN TEMP:  47; 6HR MAX TEMP:  61;

CUMBERLAND     MOCLDY    46  37  71 NW20G25   29.76R
RICE LAKE      CLEAR     49  40  69 NW7       29.76R
6HR MIN TEMP:  49; 6HR MAX TEMP:  60;

CHETEK         MOCLDY    50  41  72 NW8G21    29.75R
6HR MIN TEMP:  50; 6HR MAX TEMP:  58;

LADYSMITH      LGT RAIN  50  48  93 NE3       29.72R
6HR MIN TEMP:  50; 6HR MAX TEMP:  59; 6HR PCP:  0.11;

EAU CLAIRE     MOCLDY    51  40  65 NW14      29.72R
6HR MIN TEMP:  51; 6HR MAX TEMP:  59; 6HR PCP: TRACE;

MENOMONIE      PTCLDY    50  41  71 W15       29.75S
6HR MIN TEMP:  50; 6HR MAX TEMP:  60;

NEW RICHMOND   CLOUDY    48  40  73 NW17G24   29.80S
6HR MIN TEMP:  48; 6HR MAX TEMP:  60;

OSCEOLA        CLOUDY    49  39  68 NW17G24   29.84S
6HR MIN TEMP:  49; 6HR MAX TEMP:  62;

$$

WIZ003>005-009-010-017-018-240100-
NORTH CENTRAL WISCONSIN

CITY           SKY/WX    TMP DP  RH WIND       PRES   REMARKS
MANITOWISH WTR CLOUDY    48  48 100 CALM      29.67R
6HR MIN TEMP:  48; 6HR MAX TEMP:  58;

ARBOR VITAE    CLOUDY    52  48  86 CALM      29.66S
6HR MIN TEMP:  52; 6HR MAX TEMP:  57;

WOODRUFF       CLOUDY    52  48  86 CALM      29.66S
6HR MIN TEMP:  52; 6HR MAX TEMP:  57;

RHINELANDER    LGT RAIN  48  47  96 W5        29.66F
6HR MIN TEMP:  48; 6HR MAX TEMP:  56; 6HR PCP:  0.02;

EAGLE RIVER    LGT RAIN  47  42  83 CALM      29.65S
6HR MIN TEMP:  47; 6HR MAX TEMP:  56;

LAND O LAKES   CLOUDY    49  42  77 CALM      29.67F
6HR MIN TEMP:  49; 6HR MAX TEMP:  58;

PHILLIPS       LGT RAIN  52  44  74 NW5       29.67R
6HR MIN TEMP:  51; 6HR MAX TEMP:  57;

TOMAHAWK       CLOUDY    46  42  86 CALM      29.66S
6HR MIN TEMP:  46; 6HR MAX TEMP:  56;

MEDFORD        CLOUDY    49  43  81 W7        29.66F
6HR MIN TEMP:  49; 6HR MAX TEMP:  53;

MERRILL        LGT RAIN  50  43  77 NW3       29.66S
6HR MIN TEMP:  50; 6HR MAX TEMP:  56;

$$

WIZ029-030-035-036-043>047-240100-
CENTRAL WISCONSIN

CITY           SKY/WX    TMP DP  RH WIND       PRES   REMARKS
WAUSAU         LGT RAIN  50  44  80 NW5       29.63F
6HR MIN TEMP:  50; 6HR MAX TEMP:  56; 6HR PCP: TRACE;

MOSINEE        CLOUDY    48  45  87 W8        29.65F
MARSHFIELD     CLOUDY    50  43  77 W6        29.66F
6HR MIN TEMP:  50; 6HR MAX TEMP:  57; 6HR PCP: TRACE;

STEVENS POINT  CLOUDY    51  42  70 W5        29.65F
6HR MIN TEMP:  51; 6HR MAX TEMP:  55;

WAUPACA        CLOUDY    51  48  90 CALM      29.64F
6HR MIN TEMP:  51; 6HR MAX TEMP:  55;

WAUTOMA        CLOUDY   N/A N/A N/A W6        29.65F
WISC RAPIDS    LGT RAIN  51  44  77 NW6       29.66F
6HR MIN TEMP:  51; 6HR MAX TEMP:  58; 6HR PCP: TRACE;

CAMP DOUGLAS   CLOUDY    50  46  87 W6        29.67F
                                      6HR PCP: TRACE;

$$

WIZ011>013-019>022-031-037>040-048>050-240100-
NORTHEAST WISCONSIN

CITY           SKY/WX    TMP DP  RH WIND       PRES   REMARKS
ANTIGO         CLOUDY    45  43  91 CALM      29.65F
6HR MIN TEMP:  45; 6HR MAX TEMP:  52;

SHAWANO        CLOUDY    51  47  85 CALM      29.64F
6HR MIN TEMP:  49; 6HR MAX TEMP:  55;

OCONTO         CLOUDY    47  46  97 CALM      29.64F
6HR MIN TEMP:  47; 6HR MAX TEMP:  51;

STURGEON BAY   CLOUDY    49  47  93 N5        29.64F
6HR MIN TEMP:  49; 6HR MAX TEMP:  53;

GREEN BAY      CLOUDY    50  48  93 NE5       29.64F
6HR MIN TEMP:  50; 6HR MAX TEMP:  54;

MANITOWOC      CLOUDY    50  45  83 CALM      29.64
6HR MIN TEMP:  49; 6HR MAX TEMP:  53;

APPLETON       CLOUDY    50  39  66 CALM      29.63F
CLINTONVILLE   CLOUDY    50  45  81 CALM      29.64F
OSHKOSH        CLOUDY    50  45  83 CALM      29.63F
6HR MIN TEMP:  49; 6HR MAX TEMP:  54;

$$

WIZ032>034-041-042-053>061-240100-
SOUTHWEST WISCONSIN

CITY           SKY/WX    TMP DP  RH WIND       PRES   REMARKS
LA CROSSE      CLOUDY    54  41  61 NW15      29.72R
6HR MIN TEMP:  54; 6HR MAX TEMP:  59; 6HR PCP:  0.02;

SPARTA         CLOUDY    48  46  94 CALM      29.70S
6HR MIN TEMP:  48; 6HR MAX TEMP:  57;

VIROQUA        CLOUDY    51  46  84 W10       29.71S
6HR MIN TEMP:  49; 6HR MAX TEMP:  57; 6HR PCP:  0.02;

BOSCOBEL       CLOUDY    51  47  86 SW3       29.72S
6HR MIN TEMP:  51; 6HR MAX TEMP:  61; 6HR PCP:  0.01;

PRAIRIE DU CHI PTCLDY    53  38  58 W18       29.73R
6HR MIN TEMP:  52; 6HR MAX TEMP:  60; 6HR PCP:  0.04;

PLATTEVILLE    CLOUDY    49  49  99 W8        29.72S
6HR MIN TEMP:  49; 6HR MAX TEMP:  59; 6HR PCP:  0.01;

$$

WIZ056-057-062-063-064-067-068-240100-
SOUTH CENTRAL WISCONSIN

CITY           SKY/WX    TMP DP  RH WIND       PRES   REMARKS
REEDSBURG      DRIZZLE   51  43  73 W8        29.67F
6HR MIN TEMP:  51; 6HR MAX TEMP:  58;

BARABOO/DELLS  DRIZZLE   50  43  75 W7        29.67S
6HR MIN TEMP:  50; 6HR MAX TEMP:  58;

LONE ROCK      CLOUDY    50  48  93 W6        29.70F
6HR MIN TEMP:  50; 6HR MAX TEMP:  60; 6HR PCP:  0.01;

MINERAL POINT  MOCLDY    50  50 100 W6        29.70S
MADISON        CLOUDY    55  42  61 NW7       29.66S
6HR MIN TEMP:  54; 6HR MAX TEMP:  57;

MIDDLETON      CLOUDY    56  43  62 NW14G21   29.67R
6HR MIN TEMP:  56; 6HR MAX TEMP:  59;

WATERTOWN      CLOUDY    49  49  97 CALM      29.65S
6HR MIN TEMP:  48; 6HR MAX TEMP:  53;

MONROE         DRIZZLE   52  45  76 W16G26    29.68R
JANESVILLE     CLOUDY    54  50  87 CALM      29.65F
$$

WIZ051-052-058>065-066-070>072-240100-
SOUTHEAST WISCONSIN

CITY           SKY/WX    TMP DP  RH WIND       PRES   REMARKS
MILWAUKEE      CLOUDY    52  46  80 N3        29.64F
6HR MIN TEMP:  52; 6HR MAX TEMP:  55;

WAUKESHA       MOCLDY    48  43  81 W6        29.65F
MILWAUKEE/TIMM CLEAR     48  41  76 CALM      29.65F
RACINE         CLOUDY    50  47  89 CALM      29.65F
6HR MIN TEMP:  50; 6HR MAX TEMP:  53;

BURLINGTON     CLOUDY    49  45  88 CALM      29.64F
6HR MIN TEMP:  49; 6HR MAX TEMP:  52;

KENOSHA        CLOUDY    50  45  83 W3        29.65F
6HR MIN TEMP:  50; 6HR MAX TEMP:  53;

FOND DU LAC    CLOUDY    49  45  86 CALM      29.64F
6HR MIN TEMP:  49; 6HR MAX TEMP:  54;

SHEBOYGAN      CLOUDY    49  47  93 CALM      29.64F
6HR MIN TEMP:  49; 6HR MAX TEMP:  53; 6HR PCP: TRACE;

WEST BEND      CLOUDY    48  43  81 CALM      29.64S
JUNEAU         CLOUDY    48  46  93 CALM      29.66S
6HR MIN TEMP:  48; 6HR MAX TEMP:  52;

$$

LSZ147-162-240100-
LAKE SUPERIOR

STATION/POSITION TIME  TEMP    WIND        PRES    WAVE
                       AIR SEA DIR/SP/G            HT/PER
                 (UTC) (F)     (DEG/KT/KT) (MB)    (FT/S)
W MID LAKE BUOY  2350   52 51              1005.1S   1/ 4
DEVILS ISLAND    0000   53     330/ 24/ 27 1006.2R
PORT WING        2351          310/ 19/ 26 1007.5R
SAXON HARBOR     2340   57     300/ 13/ 19 1004.7S
$$

LMZ867-665-643>646-240100-
LAKE MICHIGAN

STATION/POSITION TIME  TEMP    WIND        PRES    WAVE
                       AIR SE


USA.gov is the U.S. government's official web portal to all federal, state and local government web resources and services.